Dewpoint
28 25 23 18 22 23 24 24 24 24 24 22 19 17 17 18 20 22 24 25 26 23 24 24 25 25 25 24 24 24 25 27 27 27 27 27 28 28 29 29 30 28 26 28 28 27 29 30 30 29 29 29 29 28 25 24 23 21 20 22 17 18 18 18 13 16 16 14 15 15 13 13 12 14 16 13 13 16 16 17 17 16 15 14 14 14
28 24 20 22 24 25 25 25 25 25 23 22 19 19 17 20 18 22 24 26 27 22 22 23 23 23 23 23 23 24 25 25 25 26 27 27 27 28 29 29 30 30 28 28 27 28 29 29 29 29 29 31 26 27 25 22 20 20 21 20 17 18 18 14 12 18 15 16 16 16 13 13 13 11 11 12 12 15 17 16 17 16 13 13 13 15
24 23 21 24 25 25 25 25 24 24 22 20 19 17 14 17 21 22 23 24 26 24 24 22 22 22 22 22 23 25 25 25 26 26 26 26 27 28 29 29 30 29 28 26 26 27 27 29 28 28 29 28 26 25 24 21 22 21 21 21 21 21 20 16 19 21 16 16 18 15 14 13 14 12 12 13 17 14 13 13 15 14 12 12 12 13
20 21 23 26 25 24 24 24 23 22 22 19 17 17 15 18 14 15 21 23 24 21 20 22 22 22 23 22 22 23 25 26 26 27 28 28 27 27 28 29 30 29 29 26 25 25 26 28 27 27 28 27 27 29 24 23 21 21 26 22 19 21 21 18 18 19 20 20 20 18 16 17 15 11 14 14 12 12 11 11 12 12 11 11 12 12
20 22 24 25 24 24 23 23 23 20 18 21 19 16 16 19 19 17 19 22 19 20 23 21 19 17 19 19 18 22 25 27 28 28 29 30 30 30 30 30 30 30 30 28 26 25 25 26 27 27 27 27 26 25 24 22 20 19 21 21 20 19 21 19 21 18 18 21 17 14 15 17 17 14 12 11 10 11 13 13 11 10 12 11 12 11
22 24 26 25 23 24 23 23 23 21 18 19 19 21 22 21 20 20 21 18 19 17 20 21 15 13 17 18 19 19 23 23 25 27 27 29 30 29 30 30 30 31 31 29 27 26 25 25 26 27 27 27 25 25 24 22 20 20 21 22 21 20 21 19 16 19 21 19 17 12 13 11 11 8 8 9 10 10 10 9 10 10 9 10 10 10
22 25 26 24 24 23 23 22 23 21 17 15 14 21 21 20 19 19 17 17 11 9 15 21 11 9 16 18 18 20 22 22 23 25 26 27 29 30 30 30 30 30 31 30 28 26 25 25 26 26 26 26 25 24 25 22 21 20 20 21 20 19 20 21 17 17 20 16 15 12 14 14 13 10 10 10 11 12 11 11 9 9 8 9 8 8
24 23 25 24 23 23 22 22 22 19 18 15 20 20 18 19 17 17 15 15 15 20 21 21 16 12 14 18 20 20 22 22 23 23 24 25 27 29 30 31 31 31 32 31 29 26 25 26 26 26 26 25 24 25 25 22 21 20 20 22 20 21 22 20 18 19 19 19 17 14 13 16 14 10 10 11 12 13 14 10 8 8 7 7 7 7
21 22 24 22 22 22 21 22 23 22 20 19 20 20 21 21 18 18 17 17 17 14 16 17 20 13 9 17 17 20 19 19 20 22 23 24 25 27 29 30 31 32 32 31 30 27 26 27 27 27 25 25 25 25 24 22 20 20 20 23 23 20 21 18 17 20 17 19 18 14 14 13 15 14 16 15 15 13 10 7 7 6 6 6 6 6
23 23 24 23 22 21 21 22 23 23 22 22 22 19 19 22 21 20 17 17 13 14 8 14 18 11 16 18 18 19 19 20 21 22 21 23 24 26 28 29 30 30 30 31 30 28 27 27 28 27 26 25 25 25 26 22 20 20 20 21 23 19 19 18 17 16 15 15 18 14 14 13 11 14 11 11 11 9 8 7 7 6 6 6 6 5
23 30 28 24 22 23 24 24 23 24 23 23 24 23 20 19 20 19 18 11 9 1 9 13 18 17 12 16 16 15 15 17 19 20 22 24 25 26 27 28 28 28 29 30 30 28 27 28 28 27 25 25 24 24 25 25 23 20 20 19 18 16 17 19 16 16 15 14 15 14 14 14 11 11 11 11 10 8 7 7 6 6 6 6 6 6
23 24 25 27 29 26 25 24 25 25 25 24 21 20 16 17 10 16 13 9 3 3 8 11 18 18 9 14 17 21 21 19 19 20 22 22 23 25 27 28 29 29 29 30 28 28 28 28 28 26 25 25 24 23 23 23 23 22 20 20 17 16 17 17 18 17 16 15 14 14 14 14 12 12 12 11 10 8 7 7 6 6 6 5 6 5
19 21 23 23 29 24 23 22 22 23 23 22 20 16 7 1 6 -3 4 3 1 1 13 16 16 13 16 18 21 21 24 24 22 23 23 23 24 25 26 28 29 28 28 29 29 28 28 28 27 26 25 25 23 23 22 22 22 22 20 19 17 15 17 17 16 16 14 14 13 13 14 13 17 14 12 12 10 8 8 7 6 5 5 5 4 3
15 20 20 22 21 22 21 17 17 14 19 21 18 11 4 1 -6 -4 -4 -1 0 10 11 18 14 13 15 17 21 22 24 24 24 24 24 24 25 26 26 28 28 29 29 30 29 29 28 28 28 26 25 25 24 23 22 22 23 21 20 19 16 14 16 17 17 16 14 13 13 13 14 14 13 12 14 12 9 9 9 8 6 6 5 4 3 3
1 6 11 20 17 21 22 19 19 18 20 21 20 16 8 2 2 -1 -4 -1 -0 10 12 12 5 9 3 18 16 21 22 22 23 24 25 26 26 26 27 28 30 31 31 30 29 29 29 29 28 27 25 25 24 23 23 22 22 21 18 18 17 16 17 16 14 15 14 13 13 13 14 15 14 14 14 11 13 10 7 6 6 6 5 4 3 4
10 7 12 22 20 22 21 22 23 21 20 22 21 20 14 8 12 4 1 1 2 9 14 5 10 12 14 18 19 20 22 23 25 27 28 28 29 28 29 29 29 30 31 31 30 29 29 29 28 27 26 25 24 24 22 22 21 19 17 16 15 14 14 14 18 16 14 13 13 14 13 13 15 13 12 12 10 8 7 7 7 5 4 4 4 3
8 0 18 25 23 21 22 23 21 20 12 18 19 11 15 18 15 6 11 9 11 3 11 -1 13 16 17 17 20 21 20 20 23 23 25 26 27 26 27 28 29 30 31 32 31 30 29 28 28 28 26 25 24 23 22 21 20 18 16 17 16 14 15 15 18 15 13 13 12 12 13 13 11 11 10 8 7 6 7 8 6 5 4 4 4 4
-0 2 15 21 19 24 24 23 24 25 21 17 10 17 22 21 18 15 6 1 -6 4 8 8 8 12 13 9 20 18 17 18 19 19 19 21 25 26 27 28 29 29 30 31 31 30 29 29 29 28 26 25 24 23 22 21 19 17 16 15 15 15 14 14 14 15 14 12 12 13 14 13 11 10 9 8 7 7 6 5 5 4 5 3 3 5
16 6 14 22 21 23 22 22 20 23 25 24 18 19 15 6 6 13 5 3 -0 -4 2 8 5 10 11 15 17 16 15 14 15 16 18 20 22 25 26 27 28 29 30 31 31 30 29 29 28 28 26 24 23 24 21 20 19 18 17 17 14 12 14 13 15 14 16 14 13 14 14 12 11 10 9 9 9 6 5 5 4 4 4 3 4 5
14 0 10 15 21 21 20 19 13 18 24 24 23 22 20 17 4 6 9 5 7 1 4 7 4 7 12 17 16 13 13 14 15 16 17 19 22 25 27 27 27 28 29 31 31 30 29 29 28 27 25 24 23 22 21 19 18 16 16 17 17 16 16 16 14 16 14 11 13 13 13 10 11 10 9 8 6 4 5 4 4 4 2 3 5 4
16 6 -4 10 15 15 10 18 11 19 16 20 19 15 18 10 15 14 9 10 10 -2 0 -2 8 11 13 19 17 14 14 15 16 17 18 20 22 25 27 27 27 27 28 30 31 30 29 29 28 27 25 24 23 22 21 19 18 16 16 15 16 16 15 13 13 13 13 14 13 14 10 9 8 7 7 6 5 5 4 4 4 3 3 5 3 4
10 13 4 11 10 9 9 14 18 19 21 22 21 15 20 9 9 6 10 8 8 7 7 -3 8 11 15 20 16 15 16 17 17 19 20 21 24 26 27 26 25 26 28 31 32 30 28 28 28 26 24 23 22 21 20 20 18 16 15 15 14 14 14 13 13 13 13 13 14 11 10 9 7 7 7 4 3 5 4 3 3 3 4 3 3 4
15 15 11 11 10 8 8 18 22 21 21 21 20 16 16 10 9 1 1 5 8 8 7 4 6 14 19 19 18 18 18 19 20 22 23 24 26 26 25 24 25 27 29 31 31 29 28 27 27 26 24 23 22 21 20 20 18 16 14 14 14 13 14 14 12 13 13 12 11 9 9 9 6 6 4 3 2 3 3 3 3 4 3 3 3 4
26 10 7 9 8 5 10 15 20 19 20 18 19 18 15 10 13 14 9 4 8 5 8 2 8 14 14 22 21 21 22 24 26 25 25 25 25 23 22 22 23 26 29 30 29 28 27 26 25 25 24 23 22 21 20 20 19 16 14 14 14 13 13 14 13 14 13 12 11 10 9 7 6 4 3 2 2 2 2 3 3 4 4 3 3 3
13 14 6 -0 0 5 8 8 12 16 19 18 13 15 14 10 8 5 5 3 10 11 13 11 9 10 12 23 24 24 23 17 16 18 24 22 19 19 20 21 23 27 29 30 29 27 26 26 26 25 24 23 22 21 21 20 18 15 14 14 13 13 14 13 14 13 12 11 9 8 8 6 5 3 2 2 2 2 2 2 3 3 3 3 2 2
6 10 3 -3 -8 -3 -1 -2 3 5 5 13 18 18 16 13 12 10 7 7 8 10 12 5 10 12 13 14 13 12 14 15 16 17 18 20 19 19 20 22 24 27 28 29 29 26 26 26 26 26 25 23 22 21 21 20 17 14 13 13 12 13 16 13 14 12 11 10 9 8 7 5 4 2 1 2 1 1 2 2 2 2 2 2 2 1
7 12 11 9 7 4 8 8 8 8 8 5 4 14 13 13 8 8 10 9 12 7 13 15 15 13 13 13 13 14 15 15 15 15 16 17 18 20 21 23 25 27 28 29 29 28 25 26 26 26 25 24 23 22 22 20 17 14 13 12 14 15 14 12 12 11 10 9 8 6 3 2 1 1 1 -0 -1 1 1 1 1 1 1 2 2 1
5 8 14 13 11 12 9 7 7 13 8 8 8 11 12 14 13 14 15 12 15 10 11 15 16 16 16 16 15 15 15 15 15 16 17 18 19 21 21 23 28 28 29 30 28 27 27 26 27 26 26 25 24 23 22 20 17 14 12 11 13 14 13 12 12 9 8 7 5 3 -0 -0 0 -1 -2 -1 -0 -0 0 1 1 1 2 2 2 1
10 7 7 10 12 15 15 14 14 14 13 12 13 14 12 14 13 14 15 17 14 11 10 9 17 14 15 14 15 15 16 17 17 18 19 20 21 22 24 25 26 28 29 29 29 28 27 27 27 27 27 26 25 23 22 19 16 14 13 12 12 12 12 12 10 8 6 5 4 0 -2 -2 -2 -3 -3 -2 -1 0 1 1 1 2 2 2 1 2
9 10 5 8 11 14 15 15 16 15 15 14 15 15 15 14 15 17 17 17 16 15 15 15 15 16 16 16 17 17 18 19 19 21 22 22 21 22 24 25 26 27 28 29 30 29 28 27 27 27 27 26 25 24 22 19 16 13 12 11 11 11 13 11 8 5 4 3 1 -1 -2 -3 -4 -3 -3 -1 -0 1 2 2 2 2 1 1 1 1
9 10 15 10 8 12 12 13 13 14 12 13 13 13 14 15 15 16 16 16 15 17 17 17 17 17 18 19 19 20 20 21 21 21 20 20 21 22 23 24 26 27 28 29 30 30 29 28 27 27 26 26 26 24 22 20 17 13 12 11 10 9 10 9 5 4 1 -1 -1 -3 -4 -5 -4 -3 -2 -0 1 2 2 2 2 2 1 1 1 1
6 8 2 3 7 11 9 12 12 13 14 13 11 10 9 14 10 14 13 16 15 16 16 14 14 17 18 19 19 20 20 20 19 19 19 19 20 22 23 24 25 26 27 29 30 30 29 28 27 27 27 27 26 24 22 20 17 14 12 10 9 8 9 7 3 1 1 -2 -4 -5 -5 -5 -3 -2 -1 0 1 2 2 2 2 2 2 2 1 1
5 6 6 3 7 8 9 10 12 10 6 5 9 9 7 13 15 17 18 18 17 16 11 9 15 13 15 18 17 17 17 17 18 18 18 19 20 21 23 24 25 26 27 29 30 31 30 29 28 27 27 27 26 24 22 20 17 14 13 10 9 8 9 6 2 0 -2 -4 -6 -6 -5 -4 -3 -1 -0 1 2 2 3 2 2 2 2 1 1 1
5 7 8 6 5 6 9 11 9 2 -4 -1 12 14 12 8 11 13 14 17 18 17 16 17 15 16 18 17 16 16 17 17 17 19 22 22 22 22 23 24 26 27 29 30 31 31 31 29 28 28 27 27 26 24 22 20 17 15 13 11 9 8 8 5 1 -1 -3 -5 -6 -6 -5 -4 -2 -1 0 1 2 3 2 2 2 2 2 2 2 1
11 7 8 3 8 10 11 9 6 -7 1 12 17 16 16 14 14 14 15 16 17 18 18 17 17 17 17 17 18 18 19 19 21 22 23 23 24 24 25 25 26 28 28 30 31 31 30 30 28 28 27 27 26 23 21 18 17 13 11 9 8 7 5 2 -1 -3 -6 -6 -6 -6 -5 -3 -2 -1 1 2 2 3 2 2 2 2 2 2 2 1
7 8 2 10 1 4 3 -3 -6 1 4 12 7 24 22 20 17 17 17 19 20 18 19 18 18 18 19 19 19 20 21 22 23 24 25 25 26 26 26 26 27 28 29 30 31 31 31 29 28 27 27 27 25 22 19 17 14 11 9 7 6 6 4 0 -2 -4 -7 -6 -6 -5 -4 -3 -2 -0 1 2 2 2 2 2 1 1 1 2 2 2
14 2 7 10 5 2 -1 -0 7 8 5 4 6 19 21 17 18 16 10 15 15 18 20 19 19 19 20 21 21 21 22 23 19 16 25 26 27 28 28 27 27 28 29 30 31 31 31 29 28 28 27 25 24 21 19 16 11 10 7 6 5 5 2 -1 -4 -5 -6 -5 -5 -4 -3 -2 -1 0 1 2 2 2 2 2 1 1 2 2 2 1
17 11 13 5 6 2 3 8 7 5 -2 5 7 20 24 22 22 21 16 18 18 16 19 19 18 17 18 19 18 19 23 17 15 14 18 23 25 26 27 29 30 31 32 32 31 30 29 28 28 27 27 25 23 21 18 14 10 8 7 6 4 3 1 -2 -4 -5 -5 -5 -5 -3 -2 -1 -0 1 2 2 2 2 2 2 1 1 2 2 1 1
15 14 10 7 6 5 3 2 -3 -3 5 5 9 13 21 25 24 21 12 13 17 18 19 19 18 18 18 17 17 20 18 16 15 15 17 17 18 22 24 25 27 29 31 31 31 30 29 28 27 27 26 24 22 21 17 13 10 8 7 6 3 3 -0 -2 -3 -5 -5 -4 -4 -3 -2 -0 1 2 2 3 3 1 0 1 1 2 2 2 1 1
13 5 9 11 8 6 -3 2 5 -0 7 10 13 19 22 25 21 15 7 8 16 16 17 20 17 17 17 17 18 18 17 16 15 15 17 18 19 21 23 24 25 27 29 31 30 30 29 28 25 24 24 23 23 20 16 12 10 10 8 6 4 2 1 -0 -3 -4 -5 -3 -2 -2 -1 1 2 2 3 3 2 1 0 0 -0 1 1 0 0 -2
13 12 10 14 3 9 13 7 1 9 14 16 15 20 24 24 17 6 7 12 14 16 17 18 17 17 18 17 18 16 16 16 17 18 19 20 20 21 22 25 27 29 29 30 30 29 28 27 26 25 25 24 23 18 15 11 11 10 10 7 5 4 2 1 -2 -4 -3 -2 -1 -0 0 2 3 3 3 3 2 2 -1 -2 -0 -0 -2 -3 -3 -2
2 4 5 1 5 8 9 6 11 9 14 14 18 25 25 13 4 8 11 15 17 17 17 17 17 17 17 17 17 17 18 19 19 19 20 20 21 22 23 25 28 30 31 30 29 28 28 27 26 26 25 24 22 18 14 12 12 12 10 9 8 6 3 2 -0 -1 -0 1 0 1 2 2 3 3 3 1 1 -1 -2 -2 -3 -4 -4 -5 -5 -3
11 8 5 5 7 4 1 2 7 2 11 17 25 25 23 10 10 13 18 17 18 18 18 18 18 17 18 17 18 19 19 19 20 21 21 22 23 24 25 26 28 29 30 31 30 28 28 27 26 26 25 24 21 17 14 13 13 13 12 10 11 8 6 3 2 1 2 3 3 3 4 4 3 3 2 1 1 -1 -2 -3 -5 -6 -7 -6 -5 -4
12 5 3 4 13 4 5 4 3 12 15 23 18 12 18 17 18 19 18 17 18 19 18 18 18 18 19 18 19 19 20 21 22 23 24 24 25 26 27 28 30 32 32 31 31 30 27 27 27 26 25 23 20 17 14 13 15 15 13 13 12 9 6 4 2 3 4 4 4 4 4 3 3 2 2 1 0 -1 -3 -5 -6 -7 -9 -8 -4 -0
14 14 16 7 14 13 8 14 12 15 15 22 21 19 18 19 20 20 20 19 18 18 19 18 19 20 21 21 21 22 22 23 23 24 25 25 26 27 27 28 30 31 31 31 31 30 27 27 28 27 25 24 21 17 14 14 16 16 15 15 13 9 6 4 4 5 4 5 4 3 2 2 2 1 1 -0 -1 -3 -5 -5 -7 -5 -9 -6 -4 -0
18 14 17 11 18 18 17 15 16 15 14 14 24 23 20 20 20 20 19 18 19 19 20 20 21 22 23 23 23 23 24 24 25 25 26 26 27 27 28 30 31 32 32 31 31 30 28 27 27 27 26 24 22 19 16 14 16 18 17 17 13 9 7 7 6 4 4 4 3 2 1 0 -0 -0 0 -1 -2 -2 -5 -4 -6 -6 -7 -4 -2 1
14 17 14 12 18 12 11 11 11 10 12 15 16 17 19 21 21 20 18 19 20 21 22 23 23 24 24 25 24 25 25 25 25 26 27 27 28 28 28 29 30 31 31 31 31 29 28 26 26 26 26 25 24 21 18 15 15 18 19 16 12 9 8 7 6 4 4 4 3 2 0 -0 -0 -1 -1 -2 -4 -5 -5 -5 -6 -6 -4 -3 -1 4
17 17 13 16 15 12 11 12 14 15 17 19 20 18 17 18 20 19 21 21 22 23 24 25 25 25 26 25 26 25 25 26 26 26 27 27 28 28 29 30 30 30 31 31 31 29 27 26 26 26 26 26 26 23 20 18 16 16 18 16 13 11 9 7 5 4 3 3 3 1 -1 -0 -0 -0 -1 -1 -2 -3 -4 -5 -5 -5 -3 -3 -0 3
16 15 15 17 15 18 19 19 21 21 22 22 16 16 18 20 21 22 23 24 24 25 25 25 26 26 26 26 26 26 26 26 27 27 27 28 28 28 29 29 30 30 31 31 31 27 28 27 26 26 26 26 26 25 22 20 18 17 18 16 13 11 9 7 5 5 4 3 2 2 0 -0 -1 -0 -1 -2 -4 -3 -2 -3 -3 -2 -1 -0 3 6
19 18 20 18 19 20 19 20 22 21 21 20 17 19 19 21 22 23 24 24 25 25 25 25 26 26 26 26 26 26 26 27 27 27 27 28 28 29 29 29 30 30 31 31 30 28 27 26 27 27 26 27 26 25 24 22 20 18 17 16 12 10 9 8 5 4 4 2 0 2 0 0 -0 -1 -2 -2 -3 -3 -5 -1 7 4 1 2 8 12
16 16 21 18 19 18 20 21 21 21 20 18 18 20 21 22 23 23 24 24 25 25 26 26 26 26 25 25 26 27 26 27 27 27 28 28 28 28 29 30 30 30 30 30 29 28 27 27 26 26 26 26 26 25 25 23 21 18 17 15 13 10 10 9 6 4 3 1 0 1 1 1 -0 -2 -2 -3 -4 -4 -4 -4 0 13 12 11 11 10